Location: Bli��� Lhota
(48.7570°N, 14.0120°E)
Time: 23:02:51
(UTC+00:00)

Cosmos 2227 - Pass Details

Date: 18 September 2020
Orbit: 836 x 859 km, 71.0° (Epoch: 31 October)

Event Time Altitude Azimuth Distance (km) Brightness Sun altitude
Rises 17:57:50 0° 204° (SSW) 3,419 7.5 -8.7°
Reaches altitude 10° 18:00:17 10° 204° (SSW) 2,485 6.8 -9.1°
Maximum altitude 18:06:01 85° 117° (ESE) 865 4.2 -10.0°
Drops below altitude 10° 18:11:45 10° 29° (NNE) 2,489 6.5 -10.9°
Sets 18:14:12 0° 29° (NNE) 3,425 7.2 -11.3°
